Weather Roundup
Issued by NWS

Home | Current Version | Previous Version | Graphics & Text | Print | Product List | Glossary Off
Versions: 1 2 3 4 5 6 7 8 9 10 11 12 13 14 15 16 17 18 19 20 21 22 23 24 25 26 27 28 29 30 31 32 33 34 35 36 37 38 39 40 41 42 43 44 45 46 47 48 49 50

783
NZUS93 KARX 222210
HRRWXR

CURRENT HOURLY OBSERVATIONS ACROSS
MUCH OF THE UPPER MISSISSIPPI VALLEY
NATIONAL WEATHER SERVICE LA CROSSE WI
400 PM CST SUN JAN 22 2017


...SOUTHEAST MINNESOTA...


CITY           SKY/WX    TMP DP  RH WIND       PRES   REMARKS
ROCHESTER      CLOUDY    34  34 100 NW7       29.71S FOG     WCI  28
ROCHESTER/MAYO CLOUDY    36  36 100 W8        29.72R WCI  30
WINONA         CLOUDY    37  36  93 NW6       29.72R WCI  33
AUSTIN         CLOUDY    36  34  93 NW5       29.73R FOG     WCI  32
ALBERT LEA     FOG       36  36 100 NW5       29.73R VSB 1   WCI  32
DODGE CENTER   MOCLDY    36  34  93 CALM      29.71R FOG
PRESTON        CLOUDY    34  33  96 NW8       29.71R FOG     WCI  27
OWATONNA       CLOUDY    36  34  93 NW5       29.74R FOG     WCI  32
FARIBAULT      NOT AVBL
$$

...ELSEWHERE IN MINNESOTA...


CITY           SKY/WX    TMP DP  RH WIND       PRES   REMARKS
MINNEAPOLIS    CLOUDY    40  35  83 W6        29.73R
INTNL FALLS    CLOUDY    37  34  89 N5        29.70R WCI  33
DULUTH         CLOUDY    36  34  92 NW6       29.67R WCI  31
RED WING       CLOUDY    39  36  87 NW3       29.72R
REDWOOD FALLS  CLOUDY    34  31  88 NW10      29.77S WCI  26
MANKATO        CLOUDY    36  36 100 NW6       29.75R FOG     WCI  31
WORTHINGTON    CLOUDY    32  31  96 NW14      29.78R FOG     WCI  22
FAIRMONT       CLOUDY    37  35  92 NW14      29.75S WCI  28
$$

...SOUTHWEST WISCONSIN...


CITY           SKY/WX    TMP DP  RH WIND       PRES   REMARKS
LA CROSSE      CLOUDY    40  36  86 NW8       29.70R WCI  34
PRAIRIE DU CHI CLOUDY    38  35  90 W6        29.70R WCI  33
BOSCOBEL       CLOUDY    40  36  86 CALM      29.70R
LONE ROCK      CLOUDY    40  36  86 NW8       29.69R WCI  34
PLATTEVILLE    CLOUDY    40  39  96 W5        29.68R
FORT MC COY    CLOUDY    36  36 100 W3        29.70R FOG
CAMP DOUGLAS   CLOUDY    37  37  99 W5        29.67R WCI  34
MAUSTON-NEW LI CLOUDY    37  36  96 NW5       29.67R FOG     WCI  34
VIROQUA        CLOUDY    35  35 100 NW5       29.67R VSB<1/4 WCI  31
WIS DELLS      CLOUDY    37  37 100 NW5       29.67R WCI  33
$$

...ELSEWHERE IN WISCONSIN...


CITY           SKY/WX    TMP DP  RH WIND       PRES   REMARKS
MILWAUKEE      MOCLDY    44  38  79 N5        29.64S
MADISON        CLOUDY    40  37  89 NW3       29.67R
GREEN BAY      FOG       39  39 100 S3        29.65S VSB 1/4
EAU CLAIRE     CLOUDY    36  34  92 W3        29.69R
BLACK RVR FLS  FOG       37  37 100 W6        29.68R VSB 1/2 WCI  32
MEDFORD        FOG       35  34  99 CALM      29.65R VSB 1/2
WAUSAU         CLOUDY    36  35  96 W5        29.64R WCI  32
WIS RAPIDS     CLOUDY    38  36  92 NW6       29.67R WCI  33
MARSHFIELD     CLOUDY    35  34  96 NW6       29.65R FOG     WCI  30
RICE LAKE      CLOUDY    37  35  92 NW3       29.71R
$$

...NORTHEAST IOWA...


CITY           SKY/WX    TMP DP  RH WIND       PRES   REMARKS
WATERLOO       CLOUDY    37  34  89 NW10      29.71R WCI  30
DUBUQUE        CLOUDY    39  35  86 N10       29.68R WCI  32
DECORAH        CLOUDY    36  36 100 CALM      29.69R FOG
MASON CITY     CLOUDY    35  34  96 NW10      29.74R FOG     WCI  27
CHARLES CITY   CLOUDY    36  36 100 NW12G18   29.73R FOG     WCI  27
OELWEIN        CLOUDY    36  36 100 NW9       29.71R FOG     WCI  29
$$

...ELSEWHERE IN IOWA...


CITY           SKY/WX    TMP DP  RH WIND       PRES   REMARKS
DES MOINES     CLOUDY    38  35  89 N9        29.75R WCI  31
IOWA CITY      CLOUDY    37  32  82 NW9       29.71R WCI  30
FORT DODGE     CLOUDY    37  34  87 NW5       29.76R WCI  34
MARSHALLTOWN   CLOUDY    37  36  96 NW13      29.72R WCI  29
CEDAR RAPIDS   CLOUDY    37  35  92 NW8       29.69R WCI  31
$$

...NORTHERN ILLINOIS...


CITY           SKY/WX    TMP DP  RH WIND       PRES   REMARKS
CHICAGO-OHARE  CLOUDY    44  38  79 N8        29.62R
CHICAGO-MIDWAY CLOUDY    44  38  79 NE10      29.62R
MOLINE         CLOUDY    43  36  76 NW9       29.65S
ROCKFORD       CLOUDY    43  35  73 N13       29.66R
PEORIA         CLOUDY    43  35  73 N15G24    29.62R
$$

NOTE: "FAIR" INDICATES FEW OR NO CLOUDS BELOW 12,000 FEET WITH NO
SIGNIFICANT WEATHER AND/OR OBSTRUCTIONS TO VISIBILITY. WIND
SPEEDS ARE IN MILES-PER-HOUR.




USA.gov is the U.S. government's official web portal to all federal, state and local government web resources and services.